sat.trackr.live / text

‹ back to catalog

STARLINK-5771

NORAD 56023 · 2023-042AP

PAYLOAD ACTIVE UNKNOWN

§ Identity

Operator
Country
US
Launch date
2023-03-24
Launch site
AFETR
Launch vehicle
Mass (kg)
RCS (m²)

Purposes: comms

External: N2YO · Heavens-Above · Gunter

§ Orbital elements

Epoch: 2026-05-24T22:45:46.224288Z

Period
94.27 min
Inclination
43.0021°
Eccentricity
0.0001214
Mean motion
15.27591479 rev/d
Perigee alt
482.2 km
Apogee alt
483.8 km
Semi-major
6,861.2 km
B*
5.2286e-5
RAAN
334.9471°
Arg perigee
261.2352°
Mean anomaly
98.8362°
Rev number
17,469

§ Raw data

STARLINK-57711 56023U 23042AP  26144.94845167  .00001177  00000+0  52286-4 0  99902 56023  43.0021 334.9471 0001214 261.2352  98.8362 15.27591479174691

JSON: /api/v1/satellites/56023 · /tle

For live sub-satellite position, see the globe view (requires WebGL).

§ Visibility from observer

Set your observer location to see the next 7 days of passes ≥ 10°. The values pass through the URL so the page stays shareable.

No JS? Fill the form by hand. The geolocation button needs JavaScript.